Date String (YYYY-MM-DD hh:mm:ss) UTC,Instrument flags,Ambient pressure (hPa),Sample flow (lpm),Bypass flow (lpm),Sample temperature (°C),Ambient temperature (°C),ASC tube jacket temperature (°C),LED temperature (°C),Box temperature (°C),Sample RH (%),Span deviation,Mass concentration (μg/m³),Mass concentration (μg/m³),Mass concentration (μg/m³)
DateTimeUTC,F1_M11,P_M11,Q1_M11,Q2_M11,T1_M11,T2_M11,T3_M11,T4_M11,T5_M11,U1_M11,ZSPAN_M11,X0_M11,X2_M11,X1_M11
2022-02-12 14:00:00,,0833.4,5.00,0.00,22.1,21.9,00.0,31.1,23.7,06.4,0000.0,0001.93,0001.35,0001.12
2022-02-12 14:01:00,,0833.4,4.99,0.00,22.0,21.6,00.0,31.1,23.6,06.5,0000.0,0002.32,0001.37,0001.12
2022-02-12 14:02:00,,0833.5,5.01,0.00,22.0,21.4,00.0,31.0,23.5,06.5,0000.0,0002.40,0001.37,0001.11
2022-02-12 14:03:00,,0833.5,5.01,0.00,21.9,21.2,00.0,31.0,23.4,06.5,0000.0,0002.40,0001.37,0001.11
2022-02-12 14:04:00,,0833.5,4.99,0.00,21.8,21.1,00.0,31.0,23.3,06.6,0000.0,0002.45,0001.39,0001.11
2022-02-12 14:05:00,,0833.6,4.99,0.00,21.9,21.6,00.0,31.0,23.5,06.6,0000.0,0002.51,0001.41,0001.11
2022-02-12 14:06:00,,0833.5,5.00,0.00,22.0,22.5,00.0,31.0,23.8,06.6,0000.0,0002.51,0001.41,0001.10
2022-02-12 14:07:00,,0833.4,5.01,0.00,22.1,22.9,00.0,31.1,24.0,06.6,0000.0,0002.51,0001.40,0001.10
2022-02-12 14:08:00,,0833.4,4.98,0.00,22.2,22.6,00.0,31.1,24.0,06.6,0000.0,0002.46,0001.37,0001.10
2022-02-12 14:09:00,,0833.4,5.00,0.00,22.1,22.2,00.0,31.1,23.8,06.6,0000.0,0002.37,0001.34,0001.11
2022-02-12 14:10:00,,0833.5,5.01,0.00,22.1,21.9,00.0,31.1,23.7,06.7,0000.0,0002.35,0001.34,0001.13
2022-02-12 14:11:00,,0833.5,5.00,0.00,22.0,21.6,00.0,31.0,23.5,06.7,0000.0,0002.35,0001.35,0001.15
2022-02-12 14:12:00,,0833.4,4.99,0.00,21.9,21.4,00.0,31.0,23.4,06.7,0000.0,0001.96,0001.34,0001.15
2022-02-12 14:13:00,,0833.4,5.01,0.00,21.8,21.2,00.0,31.0,23.4,06.7,0000.0,0001.87,0001.34,0001.15
2022-02-12 14:14:00,,0833.4,4.99,0.00,21.8,21.1,00.0,31.0,23.3,06.7,0000.0,0002.89,0001.38,0001.16
2022-02-12 14:15:00,,0833.4,4.99,0.00,21.8,21.6,00.0,31.0,23.4,06.7,0000.0,0002.97,0001.37,0001.15
2022-02-12 14:16:00,,0833.4,5.01,0.00,22.0,22.5,00.0,31.0,23.7,06.6,0000.0,0002.89,0001.33,0001.14
2022-02-12 14:17:00,,0833.5,5.00,0.00,22.1,23.3,00.0,31.0,24.0,06.5,0000.0,0002.99,0001.35,0001.15
2022-02-12 14:18:00,,0833.5,5.00,0.00,22.2,23.3,00.0,31.1,24.1,06.5,0000.0,0003.04,0001.33,0001.14
2022-02-12 14:19:00,,0833.5,5.01,0.00,22.2,22.9,00.0,31.1,24.0,06.4,0000.0,0004.40,0001.34,0001.12
2022-02-12 14:20:00,,0833.4,5.00,0.00,22.2,22.5,00.0,31.1,23.9,06.5,0000.0,0004.52,0001.33,0001.09
2022-02-12 14:21:00,,0833.4,5.00,0.00,22.1,22.1,00.0,31.1,23.8,06.5,0000.0,0004.56,0001.33,0001.07
2022-02-12 14:22:00,,0833.4,5.02,0.00,22.1,21.8,00.0,31.1,23.7,06.5,0000.0,0004.58,0001.32,0001.05
2022-02-12 14:23:00,,0833.4,4.99,0.00,22.0,21.6,00.0,31.1,23.6,06.5,0000.0,0005.03,0001.33,0001.04
2022-02-12 14:24:00,,0833.4,4.99,0.00,21.9,21.4,00.0,31.0,23.5,06.6,0000.0,0005.82,0001.34,0001.04
2022-02-12 14:25:00,,0833.4,5.01,0.00,21.9,21.2,00.0,31.0,23.4,06.6,0000.0,0004.79,0001.30,0001.03
2022-02-12 14:26:00,,0833.4,4.98,0.00,21.8,21.1,00.0,31.0,23.3,06.5,0000.0,0004.70,0001.30,0001.03
2022-02-12 14:27:00,,0833.4,5.00,0.00,21.8,21.4,00.0,31.0,23.4,06.6,0000.0,0004.78,0001.33,0001.03
2022-02-12 14:28:00,,0833.4,5.00,0.00,21.9,22.2,00.0,31.0,23.7,06.6,0000.0,0004.71,0001.29,0001.01
2022-02-12 14:29:00,,0833.4,5.01,0.00,22.1,23.0,00.0,31.1,24.0,06.6,0000.0,0004.63,0001.30,0001.01
2022-02-12 14:30:00,,0833.5,5.00,0.00,22.2,23.4,00.0,31.1,24.1,06.6,0000.0,0003.72,0001.32,0001.02
2022-02-12 14:31:00,,0833.4,4.99,0.00,22.3,23.0,00.0,31.1,24.1,06.5,0000.0,0003.29,0001.29,0001.01
2022-02-12 14:32:00,,0833.5,5.00,0.00,22.2,22.6,00.0,31.1,24.0,06.5,0000.0,0003.53,0001.27,0001.00
2022-02-12 14:33:00,,0833.4,5.00,0.00,22.2,22.3,00.0,31.1,23.9,06.5,0000.0,0003.58,0001.25,0000.99
2022-02-12 14:34:00,,0833.3,5.00,0.00,22.1,22.0,00.0,31.1,23.8,06.5,0000.0,0003.30,0001.23,0000.98
2022-02-12 14:35:00,,0833.3,5.01,0.00,22.1,21.8,00.0,31.1,23.7,06.5,0000.0,0002.27,0001.21,0000.97
2022-02-12 14:36:00,,0833.3,5.00,0.00,22.1,21.6,00.0,31.1,23.6,06.6,0000.0,0002.24,0001.19,0000.96
2022-02-12 14:37:00,,0833.2,4.98,0.00,22.0,21.4,00.0,31.1,23.5,06.6,0000.0,0002.27,0001.19,0000.93
2022-02-12 14:38:00,,0833.2,5.01,0.00,21.9,21.3,00.0,31.1,23.5,06.6,0000.0,0002.16,0001.14,0000.92
2022-02-12 14:39:00,,0833.2,5.00,0.00,21.9,21.2,00.0,31.0,23.4,06.6,0000.0,0002.09,0001.12,0000.92
2022-02-12 14:40:00,,0833.1,5.00,0.00,21.9,21.8,00.0,31.1,23.6,06.6,0000.0,0002.01,0001.09,0000.91
2022-02-12 14:41:00,,0833.1,4.99,0.00,22.1,22.8,00.0,31.1,23.9,06.5,0000.0,0001.85,0001.06,0000.89
2022-02-12 14:42:00,,0833.2,5.00,0.00,22.3,23.4,00.0,31.1,24.2,06.4,0000.0,0001.88,0001.07,0000.89
2022-02-12 14:43:00,,0833.2,5.00,0.00,22.3,23.2,00.0,31.2,24.2,06.4,0000.0,0001.63,0001.06,0000.89
2022-02-12 14:44:00,,0833.1,5.00,0.00,22.3,22.9,00.0,31.2,24.1,06.4,0000.0,0001.44,0001.04,0000.89
2022-02-12 14:45:00,,0833.1,5.01,0.00,22.3,22.5,00.0,31.2,24.1,06.4,0000.0,0001.45,0001.05,0000.89
2022-02-12 14:46:00,,0833.1,5.00,0.00,22.3,22.3,00.0,31.2,24.0,06.4,0000.0,0001.41,0001.03,0000.88
2022-02-12 14:47:00,,0833.1,4.99,0.00,22.2,22.0,00.0,31.2,23.9,06.4,0000.0,0001.40,0001.02,0000.87
2022-02-12 14:48:00,,0833.1,4.99,0.00,22.2,21.8,00.0,31.2,23.8,06.4,0000.0,0002.47,0000.99,0000.88
2022-02-12 14:49:00,,0833.1,5.01,0.00,22.1,21.6,00.0,31.2,23.7,06.4,0000.0,0002.75,0001.00,0000.88
2022-02-12 14:50:00,,0833.2,4.99,0.00,22.1,21.5,00.0,31.1,23.7,06.4,0000.0,0002.75,0000.99,0000.88
2022-02-12 14:51:00,,0833.3,5.00,0.00,22.0,21.4,00.0,31.1,23.6,06.4,0000.0,0002.84,0001.00,0000.87
2022-02-12 14:52:00,,0833.2,5.01,0.00,22.0,21.3,00.0,31.1,23.5,06.4,0000.0,0002.82,0000.99,0000.87
2022-02-12 14:53:00,,0833.2,5.00,0.00,21.9,21.2,00.0,31.1,23.5,06.4,0000.0,0002.78,0000.97,0000.87
2022-02-12 14:54:00,,0833.2,5.00,0.00,22.0,22.0,00.0,31.1,23.7,06.4,0000.0,0002.77,0000.97,0000.87
2022-02-12 14:55:00,,0833.2,4.99,0.00,22.2,22.8,00.0,31.1,24.0,06.4,0000.0,0002.81,0000.98,0000.87
2022-02-12 14:56:00,,0833.2,5.00,0.00,22.3,23.4,00.0,31.2,24.2,06.3,0000.0,0002.79,0000.98,0000.87
2022-02-12 14:57:00,,0833.2,5.02,0.00,22.4,23.1,00.0,31.2,24.2,06.3,0000.0,0003.80,0000.97,0000.87
2022-02-12 14:58:00,,0833.1,4.99,0.00,22.3,22.7,00.0,31.2,24.2,06.3,0000.0,0004.15,0000.99,0000.87
2022-02-12 14:59:00,,0833.1,5.00,0.00,22.3,22.4,00.0,31.2,24.1,06.3,0000.0,0004.39,0001.02,0000.88
